BAW584 EGLL-LIMC

Flight info

Callsign BAW584
Flight time 1h 56m
Altitude 35000
Route MODMI M185 MID L612 BOGNA UL612 VEULE DCT TEPRI UN491 POGZI DCT GELTA DCT LUVAL DCT SHARA DCT DEVDI DCT BASGO Z424 RIXUV
Aircraft A321/M-SDE3FGHIRWY/LB1

Departure

Time 2026-05-05 18:41
Airport London Heathrow Airport (EGLL)

Arrival

Time 2026-05-05 20:38
Airport Milan Malpensa International Airport (LIMC)
Time Latitude Longitude Altitude Speed Heading
2026-05-05 18:14 51.47053 -0.48026 91 ft 0 kts 270°
2026-05-05 18:30 51.47053 -0.48022 86 ft 3 kts 270°
2026-05-05 18:30 51.47053 -0.47979 86 ft 4 kts 270°
2026-05-05 18:30 51.47054 -0.47936 86 ft 4 kts 270°
2026-05-05 18:31 51.47054 -0.47902 86 ft 4 kts 252°
2026-05-05 18:31 51.47068 -0.47873 90 ft 4 kts 194°
2026-05-05 18:31 51.47092 -0.47870 89 ft 4 kts 180°
2026-05-05 18:31 51.47101 -0.47870 88 ft 0 kts 180°
2026-05-05 18:35 51.47100 -0.47870 88 ft 0 kts 180°
2026-05-05 18:36 51.47090 -0.47870 87 ft 3 kts 180°
2026-05-05 18:36 51.47052 -0.47870 87 ft 9 kts 180°
2026-05-05 18:36 51.46984 -0.47870 86 ft 10 kts 180°
2026-05-05 18:36 51.46907 -0.47869 86 ft 12 kts 179°
2026-05-05 18:37 51.46849 -0.47868 86 ft 13 kts 180°
2026-05-05 18:37 51.46754 -0.47868 86 ft 14 kts 179°
2026-05-05 18:37 51.46668 -0.47883 86 ft 12 kts 216°
2026-05-05 18:37 51.46654 -0.48011 86 ft 12 kts 270°
2026-05-05 18:38 51.46654 -0.48094 86 ft 0 kts 270°
2026-05-05 18:38 51.46654 -0.48097 86 ft 1 kts 270°
2026-05-05 18:38 51.46654 -0.48099 86 ft 0 kts 270°
2026-05-05 18:38 51.46654 -0.48112 86 ft 3 kts 270°
2026-05-05 18:39 51.46653 -0.48162 86 ft 7 kts 263°
2026-05-05 18:39 51.46604 -0.48214 88 ft 12 kts 181°
2026-05-05 18:39 51.46516 -0.48212 88 ft 12 kts 179°
2026-05-05 18:39 51.46477 -0.48157 89 ft 9 kts 96°
2026-05-05 18:40 51.46478 -0.48110 89 ft 4 kts 88°
2026-05-05 18:40 51.46479 -0.48051 87 ft 6 kts 89°
2026-05-05 18:40 51.46480 -0.47903 87 ft 35 kts 90°
2026-05-05 18:40 51.46483 -0.47111 87 ft 104 kts 89°
2026-05-05 18:41 51.46490 -0.45640 86 ft 158 kts 90°
2026-05-05 18:41 51.46486 -0.43741 489 ft 169 kts 87°
2026-05-05 18:41 51.46449 -0.41851 1208 ft 173 kts 101°
2026-05-05 18:41 51.45853 -0.40143 1873 ft 178 kts 124°
2026-05-05 18:42 51.45093 -0.38565 2426 ft 180 kts 132°
2026-05-05 18:42 51.44009 -0.37532 2965 ft 185 kts 159°
2026-05-05 18:42 51.42762 -0.36837 3344 ft 199 kts 159°
2026-05-05 18:42 51.41383 -0.36087 3560 ft 220 kts 162°
2026-05-05 18:43 51.39807 -0.35898 3710 ft 244 kts 188°
2026-05-05 18:43 51.38141 -0.36884 3905 ft 267 kts 207°
2026-05-05 18:43 51.36455 -0.38245 4468 ft 274 kts 207°
2026-05-05 18:43 51.34739 -0.39614 5173 ft 277 kts 207°
2026-05-05 18:44 51.32997 -0.40993 5905 ft 280 kts 207°
2026-05-05 18:44 51.31241 -0.42376 6576 ft 283 kts 207°
2026-05-05 18:44 51.29464 -0.43770 7232 ft 286 kts 207°
2026-05-05 18:44 51.27674 -0.45170 7898 ft 288 kts 207°
2026-05-05 18:45 51.25872 -0.46588 8569 ft 290 kts 207°
2026-05-05 18:45 51.24059 -0.48031 9234 ft 292 kts 207°
2026-05-05 18:45 51.22231 -0.49485 9861 ft 295 kts 207°
2026-05-05 18:45 51.20355 -0.50954 10201 ft 309 kts 207°
2026-05-05 18:46 51.18360 -0.52505 10329 ft 329 kts 206°
2026-05-05 18:46 51.16242 -0.54142 10453 ft 347 kts 206°
2026-05-05 18:46 51.14015 -0.55858 10578 ft 364 kts 206°
2026-05-05 18:46 51.11691 -0.57643 10869 ft 374 kts 206°
2026-05-05 18:47 51.09256 -0.59165 11358 ft 378 kts 195°
2026-05-05 18:47 51.06648 -0.59791 11857 ft 382 kts 181°
2026-05-05 18:47 51.04002 -0.59421 12367 ft 384 kts 166°
2026-05-05 18:47 51.01541 -0.57790 12838 ft 386 kts 148°
2026-05-05 18:48 50.99262 -0.55520 13364 ft 388 kts 146°
2026-05-05 18:48 50.96988 -0.53202 13907 ft 390 kts 146°
2026-05-05 18:48 50.94700 -0.50867 14383 ft 392 kts 146°
2026-05-05 18:48 50.92398 -0.48515 14846 ft 395 kts 146°
2026-05-05 18:49 50.90110 -0.46177 15309 ft 398 kts 146°
2026-05-05 18:49 50.87775 -0.43793 15752 ft 400 kts 146°
2026-05-05 18:49 50.85424 -0.41398 16210 ft 403 kts 146°
2026-05-05 18:49 50.83061 -0.38995 16665 ft 405 kts 146°
2026-05-05 18:50 50.80685 -0.36579 16892 ft 407 kts 146°
2026-05-05 18:50 50.78307 -0.34161 16948 ft 407 kts 146°
2026-05-05 18:50 50.75930 -0.31741 16948 ft 407 kts 146°
2026-05-05 18:50 50.73552 -0.29270 17304 ft 410 kts 145°
2026-05-05 18:51 50.71181 -0.26761 17745 ft 412 kts 145°
2026-05-05 18:51 50.68801 -0.24219 18166 ft 414 kts 145°
2026-05-05 18:51 50.66409 -0.21661 18509 ft 417 kts 145°
2026-05-05 18:51 50.64002 -0.19094 18864 ft 419 kts 145°
2026-05-05 18:52 50.61578 -0.16522 19231 ft 421 kts 145°
2026-05-05 18:52 50.59143 -0.13950 19598 ft 423 kts 145°
2026-05-05 18:52 50.56691 -0.11368 19964 ft 425 kts 145°
2026-05-05 18:52 50.54224 -0.08778 20336 ft 427 kts 145°
2026-05-05 18:53 50.51746 -0.06185 20680 ft 430 kts 145°
2026-05-05 18:53 50.49280 -0.03607 21043 ft 432 kts 145°
2026-05-05 18:53 50.46775 -0.00991 21395 ft 434 kts 146°
2026-05-05 18:53 50.44252 0.01645 21730 ft 437 kts 145°
2026-05-05 18:54 50.41718 0.04298 22054 ft 439 kts 144°
2026-05-05 18:54 50.39165 0.06969 22381 ft 442 kts 144°
2026-05-05 18:54 50.36596 0.09651 22698 ft 445 kts 144°
2026-05-05 18:54 50.34010 0.12346 23028 ft 447 kts 144°
2026-05-05 18:55 50.31417 0.15045 23354 ft 449 kts 144°
2026-05-05 18:55 50.28811 0.17749 23663 ft 451 kts 145°
2026-05-05 18:55 50.26186 0.20463 23956 ft 452 kts 145°
2026-05-05 18:55 50.23559 0.23176 24281 ft 453 kts 145°
2026-05-05 18:56 50.20930 0.25889 24613 ft 453 kts 145°
2026-05-05 18:56 50.18301 0.28601 24956 ft 453 kts 145°
2026-05-05 18:56 50.15703 0.31282 25301 ft 453 kts 145°
2026-05-05 18:56 50.13078 0.33992 25626 ft 453 kts 146°
2026-05-05 18:57 50.10447 0.36705 25925 ft 454 kts 146°
2026-05-05 18:57 50.07814 0.39415 26221 ft 454 kts 146°
2026-05-05 18:57 50.05170 0.42129 26490 ft 455 kts 146°
2026-05-05 18:57 50.02527 0.44831 26752 ft 455 kts 146°
2026-05-05 18:58 49.99879 0.47530 27033 ft 455 kts 146°
2026-05-05 18:58 49.97234 0.50222 27311 ft 454 kts 146°
2026-05-05 18:58 49.94600 0.52905 27661 ft 451 kts 146°
2026-05-05 18:58 49.91984 0.55569 27984 ft 450 kts 146°
2026-05-05 18:59 49.89366 0.58233 28245 ft 450 kts 146°
2026-05-05 18:59 49.86772 0.60949 28506 ft 449 kts 142°
2026-05-05 18:59 49.84433 0.64126 28884 ft 445 kts 133°
2026-05-05 18:59 49.82362 0.67646 29331 ft 440 kts 131°
2026-05-05 19:00 49.80308 0.71151 29636 ft 440 kts 131°
2026-05-05 19:00 49.78241 0.74653 29843 ft 441 kts 132°
2026-05-05 19:00 49.76170 0.78140 30130 ft 439 kts 132°
2026-05-05 19:00 49.74101 0.81618 30341 ft 440 kts 131°
2026-05-05 19:01 49.72032 0.85102 30539 ft 440 kts 132°
2026-05-05 19:01 49.69962 0.88594 30771 ft 440 kts 131°
2026-05-05 19:01 49.67899 0.92072 31026 ft 439 kts 131°
2026-05-05 19:01 49.65838 0.95540 31263 ft 438 kts 131°
2026-05-05 19:02 49.63781 0.98996 31506 ft 437 kts 131°
2026-05-05 19:02 49.61721 1.02445 31757 ft 436 kts 132°
2026-05-05 19:02 49.59664 1.05881 31992 ft 435 kts 132°
2026-05-05 19:02 49.57616 1.09305 32244 ft 434 kts 132°
2026-05-05 19:03 49.55569 1.12727 32496 ft 433 kts 132°
2026-05-05 19:03 49.53523 1.16140 32747 ft 433 kts 132°
2026-05-05 19:03 49.51512 1.19488 32998 ft 432 kts 131°
2026-05-05 19:03 49.49476 1.22876 33238 ft 431 kts 132°
2026-05-05 19:04 49.47446 1.26253 33475 ft 430 kts 132°
2026-05-05 19:04 49.45419 1.29622 33708 ft 429 kts 132°
2026-05-05 19:04 49.43394 1.32980 33924 ft 428 kts 132°
2026-05-05 19:04 49.41372 1.36328 34116 ft 427 kts 132°
2026-05-05 19:05 49.39351 1.39665 34295 ft 426 kts 132°
2026-05-05 19:05 49.37328 1.43004 34436 ft 427 kts 132°
2026-05-05 19:05 49.35306 1.46338 34566 ft 427 kts 133°
2026-05-05 19:05 49.33279 1.49676 34699 ft 428 kts 133°
2026-05-05 19:06 49.31250 1.53010 34830 ft 429 kts 133°
2026-05-05 19:06 49.29208 1.56362 34865 ft 431 kts 133°
2026-05-05 19:06 49.25105 1.63078 34858 ft 432 kts 133°
2026-05-05 19:07 49.20993 1.69798 34851 ft 433 kts 133°
2026-05-05 19:07 49.16925 1.76577 34852 ft 432 kts 126°
2026-05-05 19:08 49.15452 1.80571 34848 ft 432 kts 111°
2026-05-05 19:08 49.14474 1.84919 34849 ft 433 kts 109°
2026-05-05 19:08 49.12587 1.93656 34845 ft 434 kts 109°
2026-05-05 19:09 49.10704 2.02409 34848 ft 434 kts 109°
2026-05-05 19:09 49.08805 2.11149 34853 ft 434 kts 109°
2026-05-05 19:10 49.06892 2.19886 34853 ft 434 kts 109°
2026-05-05 19:10 49.04970 2.28610 34855 ft 435 kts 109°
2026-05-05 19:11 49.03038 2.37352 34846 ft 436 kts 109°
2026-05-05 19:11 49.01096 2.46101 34848 ft 436 kts 109°
2026-05-05 19:12 48.99158 2.54800 34852 ft 437 kts 109°
2026-05-05 19:12 48.97205 2.63562 34846 ft 437 kts 109°
2026-05-05 19:13 48.95236 2.72334 34840 ft 438 kts 109°
2026-05-05 19:13 48.93251 2.81109 34838 ft 439 kts 109°
2026-05-05 19:14 48.91260 2.89885 34832 ft 440 kts 109°
2026-05-05 19:14 48.89266 2.98673 34830 ft 440 kts 110°
2026-05-05 19:15 48.87265 3.07457 34816 ft 440 kts 110°
2026-05-05 19:15 48.85250 3.16234 34818 ft 441 kts 110°
2026-05-05 19:16 48.83227 3.25027 34826 ft 441 kts 110°
2026-05-05 19:16 48.81198 3.33816 34826 ft 442 kts 110°
2026-05-05 19:17 48.79157 3.42601 34830 ft 442 kts 110°
2026-05-05 19:17 48.77111 3.51385 34818 ft 442 kts 110°
2026-05-05 19:18 48.75058 3.60167 34817 ft 442 kts 110°
2026-05-05 19:18 48.72991 3.68955 34816 ft 443 kts 110°
2026-05-05 19:19 48.70912 3.77745 34820 ft 443 kts 110°
2026-05-05 19:19 48.68843 3.86483 34823 ft 443 kts 110°
2026-05-05 19:20 48.66762 3.95267 34825 ft 443 kts 110°
2026-05-05 19:20 48.64674 4.04042 34826 ft 443 kts 110°
2026-05-05 19:21 48.62569 4.12813 34826 ft 443 kts 111°
2026-05-05 19:21 48.60458 4.21562 34826 ft 443 kts 111°
2026-05-05 19:22 48.58347 4.30310 34826 ft 443 kts 111°
2026-05-05 19:22 48.56225 4.39060 34815 ft 444 kts 112°
2026-05-05 19:23 48.54081 4.47833 34804 ft 446 kts 112°
2026-05-05 19:23 48.51923 4.56621 34806 ft 447 kts 112°
2026-05-05 19:24 48.50130 4.63939 34815 ft 448 kts 112°
2026-05-05 19:24 48.47600 4.74245 34827 ft 449 kts 112°
2026-05-05 19:25 48.45432 4.83009 34829 ft 450 kts 112°
2026-05-05 19:25 48.43234 4.91837 34837 ft 450 kts 112°
2026-05-05 19:26 48.41037 5.00660 34849 ft 450 kts 112°
2026-05-05 19:26 48.39209 5.07982 34851 ft 450 kts 112°
2026-05-05 19:27 48.36999 5.16792 34837 ft 450 kts 113°
2026-05-05 19:27 48.34775 5.25607 34847 ft 450 kts 113°
2026-05-05 19:28 48.32539 5.34395 34856 ft 450 kts 113°
2026-05-05 19:28 48.30307 5.43184 34859 ft 450 kts 113°
2026-05-05 19:29 48.28073 5.51981 34855 ft 451 kts 113°
2026-05-05 19:29 48.25817 5.60765 34843 ft 451 kts 113°
2026-05-05 19:30 48.23550 5.69548 34843 ft 452 kts 113°
2026-05-05 19:30 48.21295 5.78286 34848 ft 452 kts 113°
2026-05-05 19:31 48.19023 5.87091 34854 ft 453 kts 113°
2026-05-05 19:31 48.16739 5.95888 34858 ft 453 kts 114°
2026-05-05 19:32 48.14444 6.04691 34846 ft 454 kts 114°
2026-05-05 19:32 48.12134 6.13503 34855 ft 455 kts 114°
2026-05-05 19:33 48.09808 6.22327 34870 ft 455 kts 114°
2026-05-05 19:33 48.07475 6.31139 34880 ft 456 kts 114°
2026-05-05 19:34 48.05140 6.39945 34864 ft 456 kts 114°
2026-05-05 19:35 48.01622 6.53166 34877 ft 457 kts 115°
2026-05-05 19:35 47.99281 6.61924 34880 ft 458 kts 115°
2026-05-05 19:36 47.96914 6.70748 34891 ft 458 kts 115°
2026-05-05 19:36 47.94533 6.79571 34872 ft 459 kts 115°
2026-05-05 19:37 47.92145 6.88382 34885 ft 459 kts 115°
2026-05-05 19:37 47.89746 6.97200 34895 ft 459 kts 115°
2026-05-05 19:38 47.87341 7.06025 34899 ft 459 kts 115°
2026-05-05 19:38 47.84934 7.14826 34883 ft 459 kts 115°
2026-05-05 19:39 47.82522 7.23628 34873 ft 459 kts 115°
2026-05-05 19:39 47.80101 7.32407 34883 ft 459 kts 115°
2026-05-05 19:40 47.77666 7.41179 34884 ft 459 kts 115°
2026-05-05 19:40 47.74882 7.49581 34880 ft 453 kts 129°
2026-05-05 19:41 47.70548 7.56193 34885 ft 444 kts 148°
2026-05-05 19:41 47.65158 7.60451 34875 ft 438 kts 160°
2026-05-05 19:42 47.59568 7.64057 34882 ft 438 kts 160°
2026-05-05 19:42 47.53979 7.67659 34882 ft 438 kts 160°
2026-05-05 19:43 47.48385 7.71261 34896 ft 438 kts 160°
2026-05-05 19:43 47.42802 7.74853 34911 ft 438 kts 160°
2026-05-05 19:44 47.37213 7.78436 34917 ft 438 kts 161°
2026-05-05 19:44 47.31625 7.81997 34922 ft 438 kts 161°
2026-05-05 19:45 47.26033 7.85562 34930 ft 438 kts 161°
2026-05-05 19:45 47.20451 7.89126 34931 ft 437 kts 161°
2026-05-05 19:46 47.14860 7.92676 34931 ft 438 kts 161°
2026-05-05 19:46 47.09268 7.96223 34929 ft 438 kts 161°
2026-05-05 19:47 47.03678 7.99756 34938 ft 438 kts 161°
2026-05-05 19:47 46.98117 8.03258 34938 ft 438 kts 161°
2026-05-05 19:48 46.92521 8.06772 34940 ft 438 kts 161°
2026-05-05 19:48 46.86925 8.10286 34933 ft 437 kts 162°
2026-05-05 19:49 46.81341 8.13790 34938 ft 437 kts 162°
2026-05-05 19:49 46.75751 8.17285 34934 ft 437 kts 162°
2026-05-05 19:50 46.70161 8.20761 34939 ft 436 kts 162°
2026-05-05 19:50 46.67366 8.22497 34469 ft 438 kts 163°
2026-05-05 19:50 46.64543 8.24249 33554 ft 441 kts 163°
2026-05-05 19:50 46.61749 8.25983 32775 ft 440 kts 163°
2026-05-05 19:51 46.58913 8.27741 31960 ft 439 kts 163°
2026-05-05 19:51 46.56104 8.29482 31136 ft 439 kts 163°
2026-05-05 19:51 46.53294 8.31224 30294 ft 440 kts 163°
2026-05-05 19:51 46.50509 8.32949 29319 ft 442 kts 162°
2026-05-05 19:52 46.47681 8.34701 28386 ft 441 kts 162°
2026-05-05 19:52 46.44857 8.36449 27410 ft 441 kts 162°
2026-05-05 19:52 46.42029 8.38195 26450 ft 441 kts 162°
2026-05-05 19:52 46.39234 8.39918 25887 ft 433 kts 161°
2026-05-05 19:53 46.36483 8.41611 25247 ft 427 kts 162°
2026-05-05 19:53 46.33762 8.43282 24624 ft 422 kts 161°
2026-05-05 19:53 46.31075 8.44929 24027 ft 416 kts 162°
2026-05-05 19:53 46.28444 8.46442 23864 ft 396 kts 167°
2026-05-05 19:54 46.25840 8.47385 23744 ft 376 kts 175°
2026-05-05 19:54 46.23309 8.47808 23621 ft 359 kts 179°
2026-05-05 19:54 46.20874 8.48146 23498 ft 346 kts 178°
2026-05-05 19:54 46.18519 8.48483 23355 ft 333 kts 178°
2026-05-05 19:55 46.16246 8.48812 23101 ft 325 kts 179°
2026-05-05 19:55 46.14012 8.49132 22699 ft 321 kts 179°
2026-05-05 19:55 46.11827 8.49507 22237 ft 320 kts 174°
2026-05-05 19:55 46.09631 8.50294 21721 ft 323 kts 166°
2026-05-05 19:56 46.07525 8.51417 21261 ft 322 kts 164°
2026-05-05 19:56 46.05465 8.52533 20801 ft 320 kts 164°
2026-05-05 19:56 46.03384 8.53651 20347 ft 318 kts 164°
2026-05-05 19:56 46.01316 8.54760 19861 ft 317 kts 164°
2026-05-05 19:57 45.99249 8.55871 19428 ft 316 kts 164°
2026-05-05 19:57 45.97857 8.56620 19108 ft 315 kts 164°
2026-05-05 19:57 45.95144 8.58079 18562 ft 314 kts 164°
2026-05-05 19:57 45.93103 8.59176 18120 ft 312 kts 164°
2026-05-05 19:58 45.91072 8.60271 17665 ft 311 kts 162°
2026-05-05 19:58 45.89153 8.61716 17444 ft 317 kts 150°
2026-05-05 19:58 45.87384 8.63670 16868 ft 322 kts 146°
2026-05-05 19:58 45.85641 8.65692 16375 ft 322 kts 145°
2026-05-05 19:59 45.83906 8.67719 15958 ft 319 kts 145°
2026-05-05 19:59 45.82195 8.69718 15434 ft 319 kts 145°
2026-05-05 19:59 45.80476 8.71716 15092 ft 314 kts 145°
2026-05-05 19:59 45.78764 8.73700 14533 ft 317 kts 145°
2026-05-05 20:00 45.77071 8.75661 14276 ft 310 kts 146°
2026-05-05 20:00 45.75305 8.77279 14130 ft 294 kts 155°
2026-05-05 20:00 45.73534 8.78643 13975 ft 284 kts 155°
2026-05-05 20:00 45.71811 8.79970 13714 ft 280 kts 155°
2026-05-05 20:01 45.70103 8.81287 13359 ft 277 kts 155°
2026-05-05 20:01 45.68406 8.82591 13000 ft 275 kts 155°
2026-05-05 20:01 45.66725 8.83879 12641 ft 274 kts 155°
2026-05-05 20:01 45.65051 8.85163 12289 ft 272 kts 155°
2026-05-05 20:02 45.63409 8.86423 12115 ft 261 kts 155°
2026-05-05 20:02 45.61826 8.87545 11959 ft 247 kts 163°
2026-05-05 20:02 45.60193 8.88136 11640 ft 240 kts 172°
2026-05-05 20:02 45.58557 8.88574 11272 ft 239 kts 172°
2026-05-05 20:03 45.56929 8.89015 10911 ft 237 kts 172°
2026-05-05 20:03 45.55314 8.89455 10542 ft 236 kts 172°
2026-05-05 20:03 45.53705 8.89892 10186 ft 235 kts 171°
2026-05-05 20:03 45.52105 8.90325 9829 ft 233 kts 171°
2026-05-05 20:04 45.50517 8.90757 9438 ft 232 kts 171°
2026-05-05 20:04 45.48957 8.91182 9063 ft 231 kts 171°
2026-05-05 20:04 45.47387 8.91609 8662 ft 230 kts 171°
2026-05-05 20:04 45.45799 8.92039 8287 ft 228 kts 171°
2026-05-05 20:05 45.44242 8.92460 7920 ft 227 kts 171°
2026-05-05 20:05 45.42723 8.92873 7726 ft 218 kts 171°
2026-05-05 20:05 45.41244 8.93277 7416 ft 215 kts 171°
2026-05-05 20:05 45.39779 8.93677 7078 ft 213 kts 171°
2026-05-05 20:06 45.38326 8.94072 6740 ft 212 kts 171°
2026-05-05 20:06 45.36881 8.94464 6404 ft 210 kts 171°
2026-05-05 20:06 45.35465 8.94846 6080 ft 209 kts 171°
2026-05-05 20:06 45.34046 8.95227 5994 ft 208 kts 171°
2026-05-05 20:07 45.32624 8.95609 5998 ft 209 kts 171°
2026-05-05 20:07 45.31197 8.95994 5997 ft 209 kts 171°
2026-05-05 20:07 45.29770 8.96383 5997 ft 209 kts 171°
2026-05-05 20:07 45.28340 8.96771 5983 ft 209 kts 171°
2026-05-05 20:08 45.26909 8.97159 5983 ft 209 kts 171°
2026-05-05 20:08 45.25483 8.97546 5980 ft 209 kts 171°
2026-05-05 20:08 45.24056 8.97934 5981 ft 209 kts 171°
2026-05-05 20:08 45.22627 8.98321 5981 ft 209 kts 171°
2026-05-05 20:09 45.21198 8.98707 5982 ft 209 kts 171°
2026-05-05 20:09 45.19774 8.99091 5981 ft 209 kts 171°
2026-05-05 20:09 45.18347 8.99475 5980 ft 209 kts 171°
2026-05-05 20:09 45.16916 8.99856 5982 ft 209 kts 171°
2026-05-05 20:10 45.15487 9.00237 5980 ft 209 kts 171°
2026-05-05 20:10 45.14061 9.00617 5980 ft 209 kts 171°
2026-05-05 20:10 45.12635 9.00998 5978 ft 209 kts 171°
2026-05-05 20:10 45.11205 9.01381 5979 ft 209 kts 171°
2026-05-05 20:11 45.09778 9.01765 5976 ft 209 kts 171°
2026-05-05 20:11 45.08368 9.02147 5977 ft 209 kts 171°
2026-05-05 20:11 45.06924 9.02541 5976 ft 209 kts 171°
2026-05-05 20:11 45.05514 9.02929 5977 ft 209 kts 171°
2026-05-05 20:12 45.04085 9.03321 5979 ft 209 kts 171°
2026-05-05 20:12 45.02659 9.03712 5979 ft 209 kts 171°
2026-05-05 20:12 45.01241 9.04109 5978 ft 207 kts 171°
2026-05-05 20:12 44.99828 9.04515 5979 ft 207 kts 171°
2026-05-05 20:13 44.98420 9.04922 5978 ft 207 kts 171°
2026-05-05 20:13 44.97010 9.05331 5978 ft 207 kts 171°
2026-05-05 20:13 44.95604 9.05740 5979 ft 207 kts 171°
2026-05-05 20:13 44.94186 9.06017 5970 ft 205 kts 187°
2026-05-05 20:14 44.92897 9.05258 5972 ft 205 kts 221°
2026-05-05 20:14 44.92180 9.03531 5981 ft 210 kts 256°
2026-05-05 20:14 44.92324 9.01474 5976 ft 218 kts 290°
2026-05-05 20:14 44.93312 8.99834 5978 ft 227 kts 325°
2026-05-05 20:15 44.94826 8.99197 5982 ft 233 kts 356°
2026-05-05 20:15 44.96453 8.99270 5984 ft 234 kts
2026-05-05 20:15 44.98081 8.99455 5980 ft 235 kts
2026-05-05 20:15 44.99706 8.99653 5979 ft 234 kts
2026-05-05 20:16 45.00785 8.99776 5981 ft 234 kts
2026-05-05 20:16 45.02342 8.99312 5979 ft 228 kts 327°
2026-05-05 20:16 45.03432 8.97780 5982 ft 220 kts 293°
2026-05-05 20:16 45.03710 8.95725 5982 ft 213 kts 258°
2026-05-05 20:17 45.03351 8.93711 5981 ft 212 kts 255°
2026-05-05 20:17 45.02916 8.91753 5978 ft 206 kts 234°
2026-05-05 20:17 45.01848 8.90483 5983 ft 203 kts 202°
2026-05-05 20:17 45.00560 8.89663 5979 ft 204 kts 215°
2026-05-05 20:18 44.99487 8.88348 5981 ft 205 kts 223°
2026-05-05 20:18 44.98475 8.86933 5979 ft 205 kts 223°
2026-05-05 20:18 44.97470 8.85505 5979 ft 205 kts 224°
2026-05-05 20:18 44.96468 8.84079 5979 ft 205 kts 224°
2026-05-05 20:19 44.95465 8.82652 5979 ft 205 kts 224°
2026-05-05 20:19 44.94461 8.81224 5979 ft 205 kts 224°
2026-05-05 20:19 44.93458 8.79799 5984 ft 205 kts 224°
2026-05-05 20:19 44.92433 8.78355 5982 ft 210 kts 224°
2026-05-05 20:20 44.91378 8.76930 5977 ft 210 kts 216°
2026-05-05 20:20 44.90026 8.76255 5976 ft 210 kts 180°
2026-05-05 20:20 44.88645 8.76838 5978 ft 212 kts 146°
2026-05-05 20:20 44.87750 8.78450 5972 ft 218 kts 115°
2026-05-05 20:21 44.87361 8.80535 5979 ft 222 kts 105°
2026-05-05 20:21 44.87081 8.82684 5981 ft 223 kts 104°
2026-05-05 20:21 44.86816 8.84839 5982 ft 223 kts 104°
2026-05-05 20:21 44.86553 8.86996 5982 ft 223 kts 104°
2026-05-05 20:22 44.86290 8.89154 5982 ft 223 kts 104°
2026-05-05 20:22 44.86027 8.91309 5981 ft 223 kts 104°
2026-05-05 20:22 44.85765 8.93464 5982 ft 223 kts 103°
2026-05-05 20:22 44.85503 8.95619 5981 ft 223 kts 104°
2026-05-05 20:23 44.85240 8.97776 5982 ft 223 kts 104°
2026-05-05 20:23 44.84976 8.99932 5983 ft 223 kts 103°
2026-05-05 20:23 44.84917 9.02113 5982 ft 228 kts 82°
2026-05-05 20:23 44.85593 9.04136 5982 ft 233 kts 50°
2026-05-05 20:24 44.86920 9.05424 5978 ft 235 kts 17°
2026-05-05 20:24 44.88519 9.05575 5977 ft 231 kts 345°
2026-05-05 20:24 44.90042 9.04880 5981 ft 230 kts 338°
2026-05-05 20:24 44.91556 9.04133 5980 ft 231 kts 338°
2026-05-05 20:25 44.93076 9.03389 5978 ft 231 kts 338°
2026-05-05 20:25 44.94595 9.02649 5979 ft 231 kts 338°
2026-05-05 20:25 44.96119 9.01910 5812 ft 231 kts 338°
2026-05-05 20:25 44.97631 9.01180 5719 ft 229 kts 338°
2026-05-05 20:26 44.99143 9.00444 5677 ft 230 kts 338°
2026-05-05 20:26 45.00657 8.99706 5623 ft 230 kts 338°
2026-05-05 20:26 45.02197 8.98958 5570 ft 230 kts 338°
2026-05-05 20:26 45.03683 8.98236 5524 ft 229 kts 339°
2026-05-05 20:27 45.05186 8.97503 5464 ft 228 kts 339°
2026-05-05 20:27 45.06687 8.96770 5421 ft 228 kts 339°
2026-05-05 20:27 45.08168 8.96047 5371 ft 227 kts 339°
2026-05-05 20:27 45.09666 8.95313 5216 ft 228 kts 339°
2026-05-05 20:28 45.11157 8.94585 4962 ft 226 kts 339°
2026-05-05 20:28 45.12639 8.93863 4717 ft 225 kts 339°
2026-05-05 20:28 45.14114 8.93144 4462 ft 223 kts 339°
2026-05-05 20:28 45.15578 8.92428 4205 ft 222 kts 339°
2026-05-05 20:29 45.17035 8.91715 4021 ft 221 kts 339°
2026-05-05 20:29 45.18487 8.91004 3976 ft 221 kts 340°
2026-05-05 20:29 45.19942 8.90290 3983 ft 222 kts 339°
2026-05-05 20:29 45.21399 8.89576 3985 ft 222 kts 339°
2026-05-05 20:30 45.22857 8.88862 3984 ft 221 kts 340°
2026-05-05 20:30 45.24304 8.88151 3981 ft 219 kts 340°
2026-05-05 20:30 45.25745 8.87444 4002 ft 219 kts 340°
2026-05-05 20:30 45.27182 8.86739 4002 ft 219 kts 340°
2026-05-05 20:31 45.28620 8.86030 4005 ft 219 kts 340°
2026-05-05 20:31 45.30057 8.85322 4003 ft 218 kts 340°
2026-05-05 20:31 45.31495 8.84617 4004 ft 218 kts 340°
2026-05-05 20:31 45.32932 8.83912 4007 ft 219 kts 340°
2026-05-05 20:32 45.34369 8.83205 4007 ft 219 kts 340°
2026-05-05 20:32 45.35804 8.82497 4009 ft 218 kts 340°
2026-05-05 20:32 45.37240 8.81787 4009 ft 219 kts 340°
2026-05-05 20:32 45.38674 8.81078 4009 ft 218 kts 341°
2026-05-05 20:33 45.40107 8.80370 4005 ft 218 kts 340°
2026-05-05 20:33 45.41516 8.79672 4006 ft 206 kts 339°
2026-05-05 20:33 45.42810 8.79041 4008 ft 190 kts 344°
2026-05-05 20:33 45.44082 8.78597 4009 ft 187 kts 348°
2026-05-05 20:34 45.45356 8.78221 3916 ft 187 kts 349°
2026-05-05 20:34 45.46625 8.77866 3711 ft 185 kts 349°
2026-05-05 20:34 45.47886 8.77519 3486 ft 184 kts 349°
2026-05-05 20:34 45.49126 8.77177 3250 ft 184 kts 349°
2026-05-05 20:35 45.50378 8.76833 2997 ft 183 kts 350°
2026-05-05 20:35 45.51622 8.76491 2781 ft 182 kts 350°
2026-05-05 20:35 45.52865 8.76150 2522 ft 182 kts 350°
2026-05-05 20:35 45.54106 8.75808 2268 ft 181 kts 351°
2026-05-05 20:36 45.55339 8.75469 2026 ft 178 kts 350°
2026-05-05 20:36 45.56504 8.75147 1787 ft 163 kts 351°
2026-05-05 20:36 45.57586 8.74849 1557 ft 154 kts 350°
2026-05-05 20:36 45.58616 8.74566 1352 ft 148 kts 349°
2026-05-05 20:37 45.59619 8.74299 1146 ft 145 kts 350°
2026-05-05 20:37 45.60605 8.74027 962 ft 144 kts 349°
2026-05-05 20:37 45.61586 8.73752 791 ft 143 kts 349°
2026-05-05 20:37 45.62504 8.73493 739 ft 116 kts 348°
2026-05-05 20:38 45.63128 8.73320 736 ft 67 kts 348°
2026-05-05 20:38 45.63510 8.73213 738 ft 39 kts 348°
2026-05-05 20:38 45.63733 8.73049 738 ft 30 kts 318°
2026-05-05 20:38 45.63817 8.72909 736 ft 10 kts 306°
2026-05-05 20:39 45.63858 8.72824 736 ft 11 kts 304°
2026-05-05 20:39 45.63902 8.72728 735 ft 12 kts 303°
2026-05-05 20:39 45.63920 8.72614 735 ft 13 kts 241°
2026-05-05 20:39 45.63838 8.72597 736 ft 13 kts 168°
2026-05-05 20:40 45.63742 8.72623 736 ft 15 kts 169°
2026-05-05 20:40 45.63639 8.72651 736 ft 16 kts 169°
2026-05-05 20:40 45.63528 8.72682 736 ft 17 kts 169°
2026-05-05 20:40 45.63422 8.72683 735 ft 14 kts 216°
2026-05-05 20:41 45.63394 8.72542 736 ft 15 kts 258°
2026-05-05 20:41 45.63373 8.72391 737 ft 16 kts 259°
2026-05-05 20:41 45.63353 8.72233 739 ft 16 kts 259°
2026-05-05 20:41 45.63333 8.72085 738 ft 12 kts 259°
2026-05-05 20:42 45.63325 8.72028 737 ft 0 kts 258°
2026-05-05 20:42 45.63324 8.72024 737 ft 1 kts 258°
2026-05-05 20:42 45.63321 8.72001 737 ft 4 kts 259°
2026-05-05 20:42 45.63312 8.71939 736 ft 8 kts 259°
2026-05-05 20:43 45.63301 8.71853 736 ft 10 kts 259°
2026-05-05 20:43 45.63286 8.71746 735 ft 12 kts 259°
2026-05-05 20:43 45.63239 8.71668 736 ft 12 kts 180°
2026-05-05 20:43 45.63154 8.71690 736 ft 9 kts 169°
2026-05-05 20:44 45.63128 8.71639 736 ft 8 kts 260°
2026-05-05 20:44 45.63121 8.71587 736 ft 1 kts 259°
2026-05-05 20:44 45.63121 8.71586 736 ft 0 kts 259°